Flag for Germany Weather past 2 weeks in Leonberg, Baden-Württemberg, Germany

Now
50 °F

Passing clouds.


Feels Like: 49 °F
Forecast: 47 / 59 °F
Wind: 3 mph from West

Location: Stuttgart-Echterdingen

Current Time: Sep 5, 2015 at 4:00:56 AM

Latest Report: Sep 5, 2015 at 3:20 AM


Visibility: N/A

Pressure: 30.01 "Hg

Humidity: 76%

Dew point: 43 °F

Location of LeonbergLocation

Historic Weather in Leonberg — Graph

°F

Leonberg temperature yesterday

Maximum temperature yesterday: 66 °F (at 12:50 PM)
Minimum temperature yesterday: 50 °F (at 6:20 AM)
Average temperature yesterday: 59 °F

Past Weeks' High & Low Weather Summary

 TemperatureHumidityPressure
High91 °F (Aug 30, 2:20 PM)100% (Aug 21, 6:20 AM)30.27 "Hg (Aug 21, 6:20 AM)
Low48 °F (Aug 26, 4:50 AM)20% (Aug 31, 5:20 PM)29.71 "Hg (Aug 24, 1:50 PM)
Average67 °F66%30.01 "Hg
* Reported Aug 21 2:20 AM — Sep 5 2:50 AM, Leonberg, Weather by CustomWeather, © 2015

Note: Actual official high and low records may vary slightly from our data, if they occured in-between our weather recording intervals... More about our weather records

Advertising

Leonberg weather history for previous 24 hours

 ConditionsComfort  
Time TempWeatherWind HumidityBarometerVisibility
2:50 AM
Sat, Sep 5
52 °FPassing clouds.3 mph72%30.01 "HgN/A
2:20 AM52 °FClear.2 mph72%30.01 "Hg10 mi
1:50 AM54 °FClear.3 mph67%30.01 "Hg10 mi
1:20 AM54 °FClear.2 mph67%30.01 "Hg10 mi
12:50 AM54 °FClear.3 mph67%30.01 "Hg10 mi
12:20 AM55 °FClear.2 mph63%30.01 "Hg10 mi
11:50 PM
Fri, Sep 4
55 °FClear.5 mph63%30.01 "Hg10 mi
11:20 PM57 °FClear.6 mph59%30.01 "Hg10 mi
10:50 PM57 °FClear.3 mph59%30.01 "Hg10 mi
10:20 PM57 °FClear.1 mph59%30.01 "Hg10 mi
9:50 PM59 °FClear.5 mph51%30.01 "Hg10 mi
9:20 PM59 °FClear.5 mph51%30.01 "Hg10 mi
8:50 PM59 °FSunny.5 mph51%30.01 "Hg10 mi
8:20 PM59 °FSunny.8 mph51%29.98 "Hg10 mi
7:50 PM61 °FSunny.8 mph48%29.98 "Hg10 mi
7:20 PM63 °FSunny.10 mph42%29.98 "Hg10 mi
6:50 PM63 °FPassing clouds.8 mph42%29.98 "HgN/A
6:20 PM64 °FPassing clouds.12 mph43%29.98 "HgN/A
5:50 PM64 °FPassing clouds.10 mph43%29.98 "HgN/A
5:20 PM66 °FPassing clouds.9 mph40%29.98 "HgN/A
4:50 PM66 °FPassing clouds.8 mph43%29.98 "HgN/A
4:20 PM64 °FPassing clouds.12 mph46%29.98 "HgN/A
3:50 PM64 °FPassing clouds.14 mph46%29.98 "HgN/A
3:20 PM66 °FSunny.6 mph43%30.01 "Hg10 mi
2:50 PM64 °FPassing clouds.7 mph46%30.01 "HgN/A
2:20 PM64 °FPassing clouds.8 mph43%30.01 "HgN/A
1:50 PM66 °FSunny.10 mph46%30.01 "Hg10 mi
1:20 PM64 °FScattered clouds.9 mph46%30.01 "HgN/A
12:50 PM66 °FScattered clouds.7 mph43%30.01 "HgN/A
12:20 PM64 °FScattered clouds.7 mph43%30.01 "HgN/A
11:50 AM63 °FPartly sunny.7 mph49%30.04 "HgN/A
11:20 AM61 °FPartly sunny.5 mph55%30.04 "HgN/A
10:50 AM59 °FPartly sunny.7 mph59%30.04 "HgN/A
10:20 AM59 °FPartly sunny.6 mph63%30.04 "HgN/A
9:50 AM59 °FPassing clouds.6 mph63%30.04 "HgN/A
9:20 AM59 °FSunny.5 mph68%30.01 "Hg10 mi
8:50 AM55 °FPartly sunny.5 mph82%30.01 "HgN/A
8:20 AM55 °FPartly sunny.1 mph77%30.04 "HgN/A
7:50 AM54 °FLight rain. Partly sunny.2 mph82%30.01 "HgN/A
7:20 AM52 °FPassing clouds.1 mph88%30.01 "HgN/A
6:50 AM52 °FPassing clouds.2 mph82%30.01 "HgN/A
6:20 AM50 °FPassing clouds.5 mph88%30.01 "HgN/A
5:50 AM52 °FClear.3 mph88%30.01 "Hg10 mi
5:20 AM54 °FClear.2 mph82%30.01 "Hg10 mi
4:50 AM54 °FClear.2 mph82%30.01 "Hg10 mi
4:20 AM55 °FClear.No wind77%30.01 "Hg10 mi
Weather by CustomWeather, © 2015

See weather overviewHow to use our weather pages